Regional Weather Roundup
Issued by NWS Kansas City/Pleasant Hill, MO

Home | Current Version | Previous Version | Text Only | Print | Product List | Glossary On
Versions: 1 2 3 4 5 6 7 8 9 10 11 12 13 14 15 16 17 18 19 20 21 22 23 24 25 26 27
000
ASUS43 KEAX 192110
RWREAX

WEATHER ROUNDUP FOR EASTERN KANSAS AND NORTHWEST MISSOURI
NATIONAL WEATHER SERVICE KANSAS CITY/PLEASANT HILL MO
400 PM CDT THU OCT 19 2017

KSZ040-057-103>105-MOZ028-029-037-043-192200-
...KANSAS CITY METROPOLITAN AREA...

CITY           SKY/WX    TMP DP  RH WIND       PRES   REMARKS
K.C. INTL      MOSUNNY   78  53  41 S14       30.06F
K.C. DOWNTOWN  SUNNY     81  53  37 S10       30.05F
LEES SUMMIT    SUNNY     80  54  40 S9        30.08S
OLATHE - IXD   SUNNY     79  52  38 S14       30.07F
OLATHE - OJC   SUNNY     77  53  43 S16       30.07F
LAWRENCE       SUNNY     80  53  39 S12       30.04F

$$

MOZ001>008-011>017-020>025-030>033-038>040-044>046-053-054-192200-
...NORTHERN AND CENTRAL MISSOURI...

CITY           SKY/WX    TMP DP  RH WIND       PRES   REMARKS
ST. JOSEPH     SUNNY     80  52  37 S13       30.04F
MOSBY          CLEAR     81  46  30 S8        30.06F
WARRENSBURG    SUNNY     79  50  36 S10       30.09S
WHITEMAN AFB   SUNNY     79  53  40 SW13      30.05F
CLINTON        SUNNY     79  52  38 S8        30.11S
SEDALIA        SUNNY     80  52  37 S10       30.11F
WARSAW         NOT AVBL
CHILLICOTHE      N/A     78  54  43 S6        30.08S
KIRKSVILLE     SUNNY     76  54  46 S9        30.10F

$$

MOZ041-047>049-056>058-063>065-088>090-097-192200-
...EASTERN AND SOUTHERN MISSOURI...

CITY           SKY/WX    TMP DP  RH WIND       PRES   REMARKS
ST. LOUIS INTL SUNNY     79  50  36 SE8       30.14F
SPIRIT OF STL  SUNNY     80  50  34 SW8       30.12F
COLUMBIA       SUNNY     78  52  40 S9        30.12F
JEFFERSON CITY SUNNY     79  48  33 S7        30.11F
ROLLA          SUNNY     79  50  36 S9        30.15F
OSAGE BEACH    SUNNY     80  51  36 S7        30.13F
SPRINGFIELD    SUNNY     79  49  34 SE8       30.13F
BRANSON        PTSUNNY   81  45  28 SE8       30.16F
JOPLIN         SUNNY     76  54  46 SW10      30.13S
WEST PLAINS    SUNNY     79  45  29 S8        30.18S

$$

IAZ060-094-KSZ022-034>040-054-083-096-NEZ052-066-093-192200-
...KANSAS...SOUTHEAST NEBRASKA AND IOWA...

CITY           SKY/WX    TMP DP  RH WIND       PRES   REMARKS
TOPEKA         SUNNY     81  51  35 S10       30.03F
MANHATTAN      SUNNY     83  49  30 S14       30.00F
EMPORIA        SUNNY     80  51  36 S15G22    30.04F
CHANUTE        SUNNY     77  54  44 S13       30.09F
WICHITA        MOSUNNY   78  48  34 S21G26    30.03F
OMAHA          SUNNY     78  52  40 S13       29.98F
LINCOLN        SUNNY     80  54  40 S13       29.98F
FALLS CITY     SUNNY     79  51  37 S12G21    30.01F
LAMONI         SUNNY     75  54  47 S10       30.06S
DES MOINES     MOSUNNY   75  53  46 SE14      30.04F

$$





USA.gov is the U.S. government's official web portal to all federal, state and local government web resources and services.